Weather History for Spokane Felts, WA

Change the Weather History Date:

Wednesday, April 17, 2013

  Actual Average Record
Temperature  
Mean Temperature 39 °F 47 °F  
Max Temperature 54 °F 59 °F 75 °F (1999)
Min Temperature 24 °F 36 °F 24 °F (2013)
Degree Days  
Heating Degree Days 26 18  
Month to date heating degree days 310 324  
Since 1 July heating degree days 5106 5645  
Cooling Degree Days 0 0  
Month to date cooling degree days 0 0  
Year to date cooling degree days 0 0  
Moisture  
Dew Point 16 °F    
Average Humidity 47    
Maximum Humidity 75    
Minimum Humidity 18    
Precipitation  
Precipitation 0.00 in 0.04 in 0.41 in (2014)
Month to date precipitation 0.53 0.75  
Year to date precipitation 3.76 5.65  
Sea Level Pressure  
Sea Level Pressure 30.38 in    
Wind  
Wind Speed 4 mph (WSW)    
Max Wind Speed 14 mph    
Max Gust Speed 21 mph    
Visibility 10 miles    
Events      
T = Trace of Precipitation, MM = Missing Value Source: NWS Daily Summary

Daily Weather History Graph

Daily Weather History Graph

Search for Another Location

Airport:

Trip Planner

Search our weather history database for the weather conditions in past years. The results will help you decide how hot, cold, wet, or windy it might be!

Date:

Astronomy

Apr. 17, 2013 Rise Set
Actual Time 5:55 AM PDT 7:42 PM PDT
Civil Twilight 5:23 AM PDT 8:15 PM PDT
Nautical Twilight 4:43 AM PDT 8:55 PM PDT
Astronomical Twilight 3:59 AM PDT 9:39 PM PDT
Moon 11:06 AM PDT (4/17) 1:31 AM PDT (4/17)
Length of Visible Light 14h 51m
Length of Day
13h 46m
Waxing Crescent, 43% of the Moon is Illuminated
Apr 17
Waxing Crescent
Apr 18
First Quarter
Apr 25
Full
May 2
Last Quarter
May 9
New

Hourly Weather History & Observations

Time (PDT) Temp. Windchill Dew Point Humidity Pressure Visibility Wind Dir Wind Speed Gust Speed Precip Events Conditions
12:53 AM 28.9 °F 25.2 °F 19.9 °F 69% 30.39 in 10.0 mi NE 3.5 mph - N/A   Clear
1:53 AM 28.9 °F - 19.9 °F 69% 30.39 in 10.0 mi Calm Calm - N/A   Clear
2:53 AM 26.1 °F - 18.0 °F 71% 30.39 in 10.0 mi Calm Calm - N/A   Clear
3:53 AM 28.0 °F - 19.9 °F 72% 30.40 in 10.0 mi Calm Calm - N/A   Clear
4:53 AM 27.0 °F - 19.0 °F 72% 30.42 in 10.0 mi Calm Calm - N/A   Clear
5:53 AM 26.1 °F - 19.0 °F 75% 30.43 in 10.0 mi Calm Calm - N/A   Clear
6:53 AM 26.6 °F 20.0 °F 19.4 °F 74% 30.40 in 10.0 mi ENE 5.8 mph - N/A   Clear
7:53 AM 33.1 °F - 19.0 °F 56% 30.45 in 10.0 mi Calm Calm - N/A   Clear
8:53 AM 37.9 °F - 17.1 °F 43% 30.45 in 10.0 mi Calm Calm - N/A   Clear
9:53 AM 42.1 °F - 14.0 °F 32% 30.44 in 10.0 mi Calm Calm - N/A   Clear
10:53 AM 46.0 °F - 12.9 °F 26% 30.43 in 10.0 mi Calm Calm - N/A   Clear
11:53 AM 46.9 °F - 9.0 °F 21% 30.42 in 10.0 mi West 4.6 mph - N/A   Clear
12:53 PM 50.0 °F - 10.9 °F 21% 30.40 in 10.0 mi WSW 12.7 mph - N/A   Partly Cloudy
1:53 PM 52.0 °F - 12.0 °F 20% 30.38 in 10.0 mi WSW 6.9 mph - N/A   Partly Cloudy
2:53 PM 53.1 °F - 10.9 °F 19% 30.36 in 10.0 mi SW 9.2 mph - N/A   Partly Cloudy
3:53 PM 53.1 °F - 10.0 °F 18% 30.34 in 10.0 mi Variable 5.8 mph - N/A   Partly Cloudy
4:53 PM 52.0 °F - 12.9 °F 21% 30.34 in 10.0 mi WNW 11.5 mph 18.4 mph N/A   Scattered Clouds
5:53 PM 53.1 °F - 15.1 °F 22% 30.34 in 10.0 mi West 10.4 mph 17.3 mph N/A   Partly Cloudy
6:53 PM 51.1 °F - 16.0 °F 25% 30.33 in 10.0 mi West 5.8 mph - N/A   Clear
7:53 PM 48.0 °F - 15.1 °F 27% 30.32 in 10.0 mi WSW 6.9 mph - N/A   Clear
8:53 PM 43.0 °F - 18.0 °F 37% 30.32 in 10.0 mi Calm Calm - N/A   Clear
9:53 PM 41.0 °F - 19.9 °F 43% 30.33 in 10.0 mi Calm Calm - N/A   Clear
10:53 PM 41.0 °F - 19.9 °F 43% 30.32 in 10.0 mi Calm Calm - N/A   Clear
11:53 PM 41.0 °F 37.1 °F 19.0 °F 41% 30.32 in 10.0 mi WSW 5.8 mph - N/A   Scattered Clouds